Temperature
21 21 21 21 23 22 18 16 16 14 13 11 11 11 12 12 12 10 4 5 6 7 7 7 8 8 8 8 8 8 8 8 7 7 7 7 7 7 7 7 7 8 8 8 9 10 10 11 11
21 21 21 22 24 22 17 16 15 14 11 10 10 10 10 8 6 5 4 5 6 7 7 8 8 7 8 8 8 7 7 7 6 6 6 6 6 6 6 6 6 6 6 7 7 8 8 9 9
21 21 20 22 21 21 17 15 14 12 10 10 10 9 9 7 5 4 4 5 6 7 7 7 7 7 7 7 7 6 6 6 6 6 5 5 5 5 5 5 5 5 5 5 5 6 7 7 8
21 21 20 21 17 15 16 15 12 11 10 10 10 8 6 4 4 4 5 5 6 7 7 7 8 7 7 7 6 5 5 5 5 5 5 5 5 5 5 5 5 4 4 4 4 5 5 6 6
21 21 22 18 16 14 14 13 12 13 11 10 9 8 6 3 3 4 5 6 6 7 7 7 7 7 7 6 5 5 5 4 4 4 4 4 4 4 4 4 4 4 4 4 4 4 4 4 5
21 23 22 19 16 14 13 12 12 12 11 9 9 9 6 3 3 4 5 6 6 7 7 7 7 6 6 5 5 5 4 4 4 4 4 4 4 4 4 4 4 4 3 3 3 3 3 3 4
21 21 20 18 16 14 13 11 12 12 11 9 9 9 5 4 3 4 5 5 6 6 6 6 6 6 5 5 4 4 4 4 4 4 4 4 4 4 4 3 3 3 3 3 3 3 3 3 3
18 20 18 18 17 15 12 10 10 11 10 7 8 9 7 4 3 4 4 5 5 6 6 6 5 5 5 4 4 4 4 4 4 4 4 4 3 3 3 3 3 3 2 2 2 2 2 3 3
18 22 20 18 18 15 11 10 8 8 7 6 6 7 6 4 3 3 3 4 4 5 5 5 5 4 4 4 3 3 3 3 3 3 3 3 3 3 2 2 2 2 2 2 2 1 2 2 2
19 21 18 15 16 14 11 11 9 8 8 7 5 4 4 4 3 3 3 3 4 4 5 5 4 4 3 3 3 3 3 3 2 2 2 2 2 1 1 1 1 1 1 1 0 0 0 0 0
16 16 13 12 12 12 11 10 9 10 10 9 7 5 4 3 3 3 3 3 4 4 4 4 4 3 3 2 2 2 2 2 1 1 1 1 0 0 0 -0 -0 -0 -1 -1 -1 -1 -2 -2 -2
14 12 12 11 9 10 10 9 9 10 10 8 7 5 4 4 3 3 3 3 3 4 4 3 3 2 2 2 1 1 1 1 0 0 -0 -0 -1 -1 -1 -2 -2 -3 -3 -3 -3 -3 -3 -3 -3
14 11 10 9 9 9 9 9 9 9 7 7 5 5 4 4 3 3 3 3 3 3 3 3 2 2 1 1 1 0 0 -0 -0 -1 -1 -2 -2 -3 -3 -4 -4 -5 -5 -5 -5 -5 -5 -5 -5
12 11 10 10 9 9 9 9 8 8 6 6 5 4 4 4 3 3 3 3 3 3 3 2 1 1 1 0 0 -0 -0 -1 -1 -2 -2 -3 -4 -5 -6 -6 -6 -7 -7 -7 -7 -7 -7 -7 -6
12 13 12 11 10 9 10 10 10 8 6 6 5 5 4 3 3 3 2 3 2 3 2 1 1 1 0 0 -0 -0 -1 -1 -2 -3 -4 -5 -5 -6 -7 -7 -8 -8 -8 -9 -9 -9 -8 -8 -8
15 16 17 13 11 9 11 15 12 7 6 6 6 5 4 3 3 2 2 2 2 2 1 1 1 0 0 0 -0 -0 -1 -2 -3 -3 -4 -5 -6 -6 -7 -8 -9 -9 -9 -10 -10 -10 -9 -9 -9
17 19 18 15 12 11 11 15 11 7 7 7 6 6 5 4 2 2 2 2 2 2 1 1 0 0 0 0 -0 -1 -2 -2 -3 -4 -5 -5 -6 -7 -8 -9 -9 -10 -10 -10 -10 -10 -10 -10 -10
19 19 18 18 14 12 12 14 11 7 7 7 7 6 5 4 3 2 2 2 2 1 1 0 -0 -0 -0 -0 -1 -1 -2 -3 -3 -4 -5 -6 -7 -8 -9 -10 -10 -11 -11 -11 -11 -11 -11 -11 -11
18 18 18 17 13 12 13 14 14 8 7 8 7 7 6 5 4 2 1 1 1 1 1 -0 -0 -1 -1 -1 -1 -2 -3 -3 -4 -5 -6 -7 -8 -9 -10 -10 -11 -11 -11 -11 -12 -12 -11 -11 -11
17 18 18 16 12 12 13 13 14 11 8 8 8 7 6 5 4 1 1 1 1 1 0 -0 -1 -1 -1 -2 -2 -3 -4 -5 -6 -6 -7 -8 -9 -9 -10 -11 -11 -12 -12 -12 -12 -12 -12 -12 -12
17 17 17 16 13 11 12 16 13 10 8 7 7 7 7 6 4 2 1 1 1 1 0 -0 -1 -1 -2 -2 -3 -3 -4 -6 -7 -7 -7 -8 -9 -10 -10 -11 -11 -12 -12 -12 -12 -12 -12 -12 -12
17 15 14 14 15 16 13 17 17 12 10 8 7 7 6 5 4 2 1 1 1 1 0 -1 -1 -2 -2 -3 -3 -4 -5 -6 -7 -8 -8 -9 -9 -10 -10 -11 -12 -12 -12 -12 -12 -12 -13 -13 -12
15 13 13 13 14 15 14 16 19 11 13 12 9 8 6 5 4 2 1 1 1 1 -0 -1 -1 -2 -2 -3 -4 -4 -6 -6 -7 -8 -9 -9 -9 -10 -10 -11 -11 -11 -12 -12 -12 -12 -12 -13 -13
13 13 13 13 14 17 16 16 18 16 16 14 11 9 6 4 3 2 1 1 1 0 -0 -1 -2 -2 -3 -3 -4 -5 -6 -7 -7 -8 -9 -10 -10 -10 -10 -11 -11 -11 -11 -12 -12 -12 -12 -12 -13
15 17 18 18 18 18 14 14 17 16 13 12 11 8 6 4 2 1 1 1 1 0 -1 -1 -2 -2 -3 -3 -4 -5 -6 -7 -8 -9 -10 -10 -10 -10 -10 -10 -11 -11 -11 -11 -11 -12 -12 -12 -12
15 16 17 17 18 18 14 15 19 13 9 8 7 6 4 3 1 1 1 1 0 -0 -1 -1 -2 -2 -3 -4 -5 -6 -7 -7 -8 -9 -10 -10 -11 -11 -11 -11 -11 -11 -11 -11 -11 -11 -11 -12 -12
15 15 14 16 16 15 17 17 18 10 10 8 7 5 4 2 1 1 1 1 0 -0 -1 -1 -2 -3 -3 -4 -5 -6 -7 -8 -8 -9 -10 -10 -11 -11 -11 -11 -11 -11 -11 -11 -11 -11 -11 -11 -11
14 14 15 16 16 16 18 18 18 18 16 13 9 6 4 2 1 0 1 1 0 -0 -1 -1 -2 -3 -3 -4 -5 -6 -7 -7 -8 -9 -10 -10 -11 -11 -11 -11 -11 -11 -10 -10 -10 -11 -10 -10 -10
13 13 14 15 15 16 16 18 18 18 16 14 11 8 5 2 1 1 1 1 0 -0 -1 -2 -2 -3 -4 -4 -5 -6 -7 -8 -8 -9 -10 -10 -11 -11 -11 -11 -11 -11 -11 -11 -11 -11 -11 -10 -10
14 15 15 16 16 14 15 17 17 15 13 11 10 7 4 3 1 1 1 1 0 -1 -1 -2 -3 -3 -4 -4 -5 -6 -7 -8 -9 -9 -10 -10 -11 -11 -11 -11 -11 -11 -11 -11 -11 -11 -11 -11 -11
Wind_Speed
5 3 1 1 3 7 7 5 6 7 5 5 7 6 7 7 4 6 4 9 12 13 15 18 22 22 23 24 25 25 26 26 27 28 28 28 29 29 28 29 29 29 29 28 28 28 28 28 28
4 1 1 1 2 5 6 6 8 7 10 9 7 6 7 7 7 6 4 9 11 13 14 18 21 22 23 24 24 25 25 26 27 27 28 28 29 29 28 29 28 28 28 28 28 28 28 28 28
5 4 4 4 5 5 8 8 11 12 9 5 5 5 5 6 5 4 5 7 9 12 14 18 21 21 22 23 24 24 24 25 26 27 27 28 28 28 28 28 28 28 28 28 28 28 28 29 29
2 4 5 7 9 5 7 12 13 12 6 4 6 8 5 4 3 6 6 7 9 12 14 17 21 21 22 22 23 23 24 24 25 26 27 27 27 28 28 28 28 28 28 28 28 28 28 28 29
2 3 6 7 7 6 8 11 11 7 7 6 7 7 7 6 8 8 7 8 10 12 14 16 20 20 21 22 22 22 23 24 24 25 26 26 27 27 27 27 28 28 28 28 28 28 28 28 28
3 2 4 7 8 7 8 8 8 6 7 7 8 9 7 9 8 7 6 7 10 11 13 14 16 18 19 21 22 21 22 22 23 24 25 26 26 26 26 27 28 28 28 28 28 28 28 28 28
3 5 6 10 10 8 7 7 8 7 8 7 8 9 9 10 8 6 6 6 8 11 12 13 15 16 16 17 20 19 20 21 21 22 24 25 24 24 25 25 27 28 28 28 28 28 29 28 28
4 7 8 8 10 8 10 7 5 7 7 7 6 6 8 13 10 6 4 5 7 9 11 13 14 15 15 14 16 17 18 20 20 21 23 24 22 22 23 24 26 27 28 28 28 29 29 29 27
0 4 6 8 9 9 12 8 6 4 8 6 3 2 9 16 11 6 3 4 6 8 10 12 14 14 14 13 13 15 15 18 19 19 22 21 20 20 21 23 25 26 27 27 27 28 29 28 24
4 3 5 3 3 10 14 9 11 9 9 7 7 9 15 14 10 6 4 5 7 9 9 11 13 14 14 12 12 13 14 15 16 17 19 18 18 18 19 21 22 24 25 24 24 27 25 22 20
7 7 6 5 6 12 13 10 10 10 8 9 14 18 17 13 10 6 4 5 6 7 8 10 12 13 13 12 12 11 12 13 14 16 18 18 17 16 17 18 18 20 21 20 22 21 19 20 20
8 8 7 8 7 9 11 10 8 10 2 6 15 19 17 14 10 7 4 4 5 7 8 9 10 12 12 12 11 11 11 12 13 14 16 17 15 16 17 16 18 18 17 19 19 18 21 22 22
7 7 7 9 9 9 9 8 6 6 4 12 17 17 16 13 10 7 4 3 4 6 7 9 9 11 12 11 11 11 11 12 13 13 14 17 16 16 17 17 17 18 18 18 19 20 21 22 21
10 11 11 8 8 6 7 5 5 7 12 16 17 16 15 13 11 8 6 3 3 5 7 8 8 10 11 11 11 11 11 12 13 13 15 16 16 16 17 17 18 18 18 19 20 21 21 19 19
10 9 7 5 4 5 5 6 8 11 16 18 17 15 14 13 11 9 6 3 3 4 5 7 8 10 11 12 12 11 12 13 12 13 14 15 17 17 18 17 17 18 19 21 20 20 19 17 18
5 5 4 5 5 5 6 7 8 16 19 18 17 16 15 13 12 9 7 4 2 2 4 6 8 10 12 12 12 11 12 13 12 13 13 16 18 18 18 17 17 19 20 19 18 16 16 16 17
4 3 3 4 7 6 8 7 8 16 18 18 17 16 15 14 13 11 8 5 2 1 4 6 8 10 12 12 12 12 12 12 12 12 13 17 18 18 18 17 17 20 19 18 17 15 16 17 18
1 3 3 3 7 9 10 12 7 15 19 18 17 17 16 16 15 12 9 6 3 0 3 5 8 10 12 11 11 10 11 11 11 12 14 17 17 18 18 17 18 19 16 15 15 18 18 17 17
1 4 6 2 3 7 13 15 11 14 18 19 18 18 18 16 14 12 10 7 4 1 3 5 8 9 10 9 9 9 10 9 11 12 15 16 17 18 18 17 18 18 15 16 18 18 19 17 16
3 5 5 2 2 5 11 16 12 14 19 20 19 19 18 16 14 13 11 8 5 1 2 5 7 8 9 9 9 8 10 9 10 12 14 15 17 18 17 18 18 18 16 18 18 18 16 16 15
3 5 5 5 1 4 9 8 4 5 11 16 17 18 18 17 16 15 13 9 5 2 2 4 6 7 9 10 9 9 8 7 8 11 11 16 18 18 18 19 19 19 17 16 19 19 19 17 16
3 1 4 5 6 4 3 6 2 3 7 13 17 18 18 17 16 14 13 10 6 2 0 3 5 7 8 9 9 11 9 10 12 10 11 17 17 18 18 19 20 20 18 18 18 18 17 18 16
2 1 3 3 4 5 2 5 3 2 5 9 14 17 17 16 15 14 12 9 6 3 0 3 5 6 7 9 9 10 10 10 10 11 13 14 16 17 18 19 20 20 18 19 19 19 18 15 15
1 2 2 3 3 3 1 4 5 2 2 2 4 10 13 14 14 13 11 9 6 4 1 2 4 5 7 8 9 9 11 12 13 14 14 13 12 15 18 21 20 20 19 18 18 17 18 16 16
2 4 4 3 3 3 1 5 7 1 4 5 5 5 10 13 14 14 13 10 7 4 2 2 4 5 7 8 8 9 11 12 13 13 13 14 13 13 17 20 20 20 20 20 18 16 15 15 16
1 3 4 5 6 7 2 6 5 1 3 5 6 6 9 13 14 14 12 10 7 5 3 2 4 5 7 7 8 9 10 9 9 12 12 13 12 13 19 21 20 21 21 19 17 13 14 13 14
1 2 2 3 4 6 6 6 7 3 8 9 8 8 11 14 15 14 12 9 7 5 3 2 3 5 6 7 8 9 9 10 11 12 12 11 13 16 19 20 19 20 20 19 17 12 13 13 13
2 3 3 2 4 6 9 7 5 5 6 8 11 12 13 14 15 14 12 10 7 5 3 2 3 5 6 7 7 7 9 10 11 11 12 13 15 17 18 18 18 18 18 18 15 14 13 13 12
4 4 3 2 3 4 7 7 4 9 6 7 9 11 14 16 16 14 12 10 8 6 4 3 3 4 6 6 8 9 9 10 11 10 12 13 14 16 16 17 17 17 17 16 15 15 15 14 14
3 5 6 4 3 4 5 8 3 7 6 8 9 9 12 15 15 14 12 10 8 7 5 4 3 4 5 6 8 8 9 10 10 11 12 14 14 15 16 17 16 16 16 16 15 15 15 14 15
Wind_Direction
107 137 237 233 96 79 90 95 116 127 103 92 82 86 84 63 42 90 78 19 6 1 357 1 10 12 14 16 16 17 16 16 15 14 13 12 11 9 8 6 4 2 360 358 357 355 354 352 351
95 132 348 19 146 127 108 126 127 110 120 118 93 91 91 83 70 85 63 22 12 9 5 7 12 14 16 17 17 17 16 16 15 14 13 11 9 8 6 5 2 0 359 357 355 353 351 350 348
94 53 51 66 76 102 124 133 126 120 127 128 108 76 81 93 88 82 53 26 18 19 14 12 15 17 18 18 18 17 16 15 14 13 11 10 8 6 4 3 0 359 357 355 353 351 349 347 345
109 80 67 70 86 71 116 137 137 137 135 122 131 112 97 65 83 92 70 37 28 25 20 17 19 20 21 20 19 18 16 15 13 11 9 8 6 3 2 1 358 356 355 353 351 348 346 344 342
83 98 85 84 90 108 120 135 150 150 143 141 141 124 113 103 104 99 75 45 32 27 22 21 22 22 23 22 20 18 15 14 11 9 7 4 2 360 358 357 355 353 352 350 348 346 344 342 339
90 83 113 123 121 133 144 160 167 154 143 146 148 131 123 135 127 103 77 52 37 28 23 23 23 24 23 22 19 16 13 11 9 6 4 1 359 357 355 354 352 349 348 346 345 343 341 338 336
83 78 105 130 140 160 161 168 185 167 157 155 153 137 138 153 134 117 87 57 41 31 27 24 22 20 19 18 16 12 11 8 6 4 2 359 356 354 352 351 349 346 345 343 341 339 337 335 332
82 104 117 144 155 164 154 147 155 168 145 135 167 161 160 159 147 132 96 57 42 34 29 24 21 17 11 8 10 7 7 6 4 2 360 356 352 350 349 348 345 343 342 339 337 335 334 332 328
249 117 146 161 169 160 160 156 142 130 139 147 164 139 136 143 150 149 126 74 47 37 31 24 19 14 7 2 359 359 1 2 1 359 357 353 349 347 344 342 340 340 338 336 334 333 331 329 325
19 109 115 111 145 156 165 168 156 160 165 164 153 134 136 147 156 152 116 62 40 32 27 22 17 11 4 358 354 356 358 357 358 355 353 349 344 341 339 336 335 335 334 332 332 330 328 328 324
52 84 109 99 111 144 154 158 166 174 188 193 175 156 155 159 161 154 120 68 44 33 26 21 15 7 2 356 353 354 353 352 351 351 349 344 341 337 337 335 333 332 331 331 329 327 327 323 319
85 79 95 115 122 145 153 156 175 196 230 174 163 157 160 168 169 163 133 81 49 35 25 17 11 4 359 354 350 352 350 348 347 345 346 345 339 335 335 331 329 328 327 326 325 321 319 317 313
88 106 91 105 115 128 144 165 178 192 154 148 150 160 169 173 170 161 139 102 52 34 24 15 2 0 355 350 347 348 348 346 342 341 343 343 336 332 330 325 324 322 321 321 320 317 316 313 311
105 111 113 116 119 141 157 168 189 184 158 155 162 172 178 180 177 172 169 128 56 33 21 9 358 357 351 348 346 345 344 342 340 339 339 339 334 328 325 321 320 318 319 318 315 313 312 310 308
119 113 119 136 144 152 173 205 214 172 168 170 177 182 185 188 187 188 174 144 68 35 13 5 353 350 347 344 344 343 343 342 339 337 335 336 334 328 325 320 318 318 318 316 313 311 310 308 307
140 159 180 164 175 169 215 257 177 169 178 184 189 191 194 196 197 191 178 161 103 31 6 0 349 343 345 344 342 342 342 341 338 336 335 338 336 333 328 322 320 319 318 315 313 311 310 308 306
188 230 243 183 194 187 223 257 162 179 189 196 198 200 202 201 202 195 186 174 144 26 359 352 348 344 343 341 340 340 340 340 339 339 340 339 337 335 330 323 320 320 317 314 311 311 310 307 306
219 255 258 250 185 207 233 249 194 191 202 207 207 207 209 210 206 196 188 179 167 49 353 349 347 346 343 341 340 339 342 342 342 341 341 338 335 334 330 322 321 320 315 313 312 310 307 305 304
293 269 279 282 160 227 252 262 244 200 207 216 216 215 216 217 209 193 189 186 186 223 345 348 346 348 348 346 344 341 340 336 337 337 335 333 333 331 327 322 320 318 313 311 309 308 307 306 306
250 276 285 249 177 253 287 279 264 213 212 217 220 221 221 217 205 196 193 192 199 237 342 345 347 346 349 345 338 331 325 325 327 330 330 331 330 327 323 319 317 314 312 309 308 308 305 303 305
257 280 305 306 289 234 298 283 194 204 224 228 231 231 228 220 211 199 195 195 198 221 347 345 342 340 344 342 335 331 327 326 334 335 331 329 326 323 320 317 316 313 311 307 307 306 302 303 302
300 298 294 290 293 301 329 310 163 185 226 229 230 229 228 221 215 202 194 192 191 178 9 334 333 335 342 341 338 339 335 334 333 330 324 324 324 322 321 319 317 314 310 307 306 304 300 298 297
334 349 271 266 271 281 245 284 286 161 253 237 228 226 224 217 210 198 189 181 171 164 233 320 325 332 340 340 339 335 331 329 326 327 324 326 325 324 324 324 321 318 314 310 306 304 299 295 292
187 205 178 200 236 267 155 290 292 195 229 249 230 224 218 209 199 189 175 167 167 172 218 299 317 329 338 338 337 334 331 330 328 329 328 328 326 325 328 329 325 322 319 314 310 305 300 295 291
253 305 307 299 290 327 122 267 266 276 245 257 263 239 212 197 189 181 175 176 180 192 225 282 314 329 337 335 334 332 329 327 327 328 327 327 326 327 328 330 327 325 322 320 316 308 303 297 293
25 336 352 324 316 315 251 262 280 199 243 253 258 248 206 193 189 184 180 179 183 195 223 274 314 327 333 332 330 327 327 325 322 324 323 322 322 323 324 326 326 327 327 327 325 316 309 300 295
146 100 8 283 285 285 277 274 282 203 247 240 238 224 206 195 190 185 180 180 185 196 217 269 308 320 327 326 325 323 327 325 321 321 321 320 322 323 324 325 327 328 330 331 331 326 321 310 300
6 143 181 264 310 303 296 284 274 265 257 228 229 223 209 195 190 186 182 182 186 195 210 246 291 312 318 319 322 318 321 322 321 319 321 322 323 325 325 328 329 329 331 333 331 331 331 326 320
164 170 189 201 263 280 301 295 221 262 273 256 245 226 206 195 191 186 183 182 185 194 210 240 276 301 309 316 317 317 319 320 320 319 321 323 324 326 327 328 329 330 331 331 332 335 336 334 332
233 215 199 241 239 233 269 274 212 244 253 254 260 233 207 196 190 185 181 182 190 200 211 232 263 289 304 310 311 314 317 320 321 321 322 323 324 327 327 328 329 330 330 330 328 334 338 338 336
Height
1557 1557 1558 1560 1561 1568 1587 1599 1600 1607 1612 1616 1617 1616 1617 1620 1621 1630 1633 1628 1627 1626 1624 1622 1619 1616 1613 1609 1605 1601 1598 1594 1590 1586 1583 1579 1575 1572 1569 1565 1562 1559 1556 1553 1550 1548 1545 1543 1541
1558 1559 1561 1561 1559 1571 1593 1600 1603 1608 1615 1618 1619 1620 1621 1625 1628 1630 1630 1628 1627 1626 1624 1621 1618 1615 1612 1608 1604 1600 1596 1593 1589 1585 1582 1578 1574 1571 1567 1563 1560 1557 1554 1551 1548 1545 1542 1539 1537
1560 1560 1562 1563 1569 1577 1593 1602 1608 1613 1617 1618 1620 1622 1624 1627 1629 1630 1629 1628 1627 1625 1623 1621 1618 1614 1611 1607 1603 1599 1595 1592 1588 1584 1581 1577 1573 1569 1566 1562 1558 1555 1552 1548 1545 1542 1539 1536 1533
1561 1562 1566 1570 1586 1598 1597 1605 1610 1614 1617 1619 1620 1623 1626 1628 1629 1629 1628 1627 1627 1625 1623 1620 1617 1614 1610 1606 1602 1598 1594 1591 1587 1583 1580 1576 1572 1568 1564 1561 1557 1553 1549 1546 1542 1539 1536 1532 1529
1561 1563 1567 1581 1594 1603 1604 1608 1611 1612 1616 1619 1620 1623 1626 1628 1627 1627 1627 1627 1626 1624 1622 1619 1616 1612 1608 1604 1601 1597 1593 1590 1586 1582 1578 1575 1571 1567 1563 1559 1555 1551 1547 1543 1539 1536 1532 1529 1526
1563 1562 1567 1582 1596 1604 1608 1610 1612 1613 1616 1619 1621 1623 1627 1627 1627 1627 1627 1626 1625 1624 1621 1618 1615 1611 1607 1603 1599 1596 1592 1588 1584 1580 1577 1573 1569 1565 1561 1557 1553 1549 1545 1540 1536 1532 1528 1525 1522
1564 1566 1575 1584 1594 1602 1607 1610 1611 1612 1615 1619 1620 1622 1626 1627 1627 1627 1626 1626 1625 1623 1620 1617 1614 1610 1606 1602 1598 1594 1590 1586 1582 1578 1574 1571 1567 1563 1558 1554 1550 1546 1541 1537 1533 1528 1524 1520 1516
1565 1571 1581 1585 1590 1597 1607 1610 1612 1614 1616 1619 1621 1622 1624 1626 1626 1626 1626 1625 1624 1622 1619 1616 1612 1609 1605 1600 1596 1592 1589 1585 1581 1577 1573 1569 1564 1560 1556 1551 1547 1542 1538 1533 1529 1524 1520 1515 1511
1568 1570 1577 1584 1588 1596 1605 1609 1613 1614 1616 1618 1620 1621 1622 1623 1624 1625 1626 1625 1623 1621 1618 1615 1611 1607 1603 1599 1595 1591 1588 1584 1580 1575 1571 1567 1562 1557 1553 1548 1543 1538 1533 1529 1524 1519 1515 1510 1506
1570 1571 1583 1590 1591 1596 1603 1607 1611 1614 1616 1617 1619 1620 1621 1622 1624 1625 1626 1625 1622 1619 1616 1613 1609 1605 1601 1597 1593 1590 1586 1582 1577 1573 1568 1563 1559 1554 1548 1543 1539 1534 1529 1524 1519 1514 1510 1505 1501
1577 1583 1592 1595 1597 1599 1604 1608 1610 1611 1613 1613 1615 1617 1620 1622 1623 1624 1624 1622 1620 1618 1615 1611 1607 1604 1599 1595 1592 1588 1584 1579 1575 1570 1565 1560 1555 1550 1544 1539 1534 1529 1524 1519 1513 1509 1505 1500 1496
1585 1593 1595 1598 1600 1602 1605 1607 1610 1610 1611 1611 1613 1615 1618 1620 1622 1622 1622 1620 1618 1616 1613 1610 1606 1602 1598 1594 1590 1586 1581 1577 1572 1567 1562 1557 1551 1546 1541 1536 1530 1525 1520 1514 1509 1504 1500 1495 1491
1587 1596 1599 1601 1602 1604 1606 1607 1608 1609 1610 1610 1613 1615 1617 1619 1620 1620 1619 1618 1616 1614 1611 1608 1604 1600 1596 1592 1588 1584 1579 1575 1570 1565 1559 1554 1548 1543 1537 1532 1527 1521 1516 1511 1505 1500 1495 1490 1485
1592 1596 1600 1602 1604 1605 1606 1608 1608 1607 1608 1610 1612 1614 1616 1617 1618 1617 1617 1616 1615 1612 1610 1606 1602 1598 1594 1590 1586 1582 1577 1573 1568 1562 1557 1551 1545 1539 1533 1528 1522 1517 1512 1506 1501 1495 1490 1485 1480
1594 1596 1600 1603 1604 1605 1607 1605 1604 1604 1607 1609 1611 1613 1614 1615 1615 1615 1615 1614 1613 1610 1608 1604 1600 1596 1592 1588 1584 1580 1576 1571 1565 1559 1553 1547 1541 1535 1529 1523 1518 1513 1508 1502 1496 1491 1486 1480 1475
1593 1591 1590 1599 1602 1604 1606 1591 1597 1601 1604 1607 1609 1611 1611 1612 1613 1613 1612 1611 1610 1608 1605 1602 1598 1594 1591 1587 1583 1578 1573 1568 1562 1556 1550 1544 1538 1532 1526 1520 1515 1509 1504 1498 1493 1487 1481 1476 1470
1586 1582 1583 1593 1599 1601 1601 1589 1597 1599 1602 1604 1606 1607 1609 1609 1610 1609 1609 1608 1607 1605 1603 1599 1596 1592 1589 1585 1581 1576 1571 1565 1559 1553 1547 1541 1535 1528 1522 1517 1511 1506 1500 1495 1489 1484 1478 1471 1465
1581 1580 1582 1584 1593 1598 1595 1588 1593 1597 1599 1600 1602 1604 1605 1606 1606 1606 1606 1605 1604 1603 1600 1597 1593 1590 1586 1583 1579 1574 1568 1563 1556 1550 1544 1538 1531 1525 1519 1514 1508 1502 1497 1491 1486 1480 1474 1468 1461
1583 1583 1582 1584 1592 1594 1587 1584 1585 1592 1595 1596 1597 1599 1600 1601 1604 1603 1602 1602 1601 1600 1597 1594 1591 1587 1583 1579 1575 1570 1564 1559 1552 1546 1540 1534 1528 1522 1516 1511 1505 1499 1493 1487 1482 1476 1469 1463 1458
1585 1583 1581 1586 1594 1593 1584 1579 1578 1584 1588 1590 1591 1593 1595 1597 1599 1598 1598 1599 1598 1597 1595 1591 1588 1584 1580 1576 1571 1566 1560 1554 1548 1543 1537 1531 1525 1519 1513 1507 1502 1496 1489 1483 1478 1472 1465 1459 1455
1585 1583 1582 1585 1590 1593 1590 1568 1575 1582 1585 1587 1588 1589 1590 1592 1594 1594 1595 1595 1595 1594 1591 1588 1585 1581 1577 1573 1568 1563 1557 1552 1547 1540 1534 1528 1522 1516 1510 1504 1498 1492 1486 1479 1473 1468 1461 1455 1450
1582 1587 1589 1589 1586 1577 1587 1568 1561 1575 1580 1581 1582 1582 1584 1587 1589 1590 1591 1592 1591 1590 1588 1585 1581 1578 1574 1570 1565 1559 1554 1548 1543 1536 1531 1525 1519 1514 1508 1501 1495 1489 1482 1475 1469 1463 1457 1451 1445
1587 1590 1589 1589 1586 1581 1583 1575 1556 1574 1570 1571 1574 1576 1578 1581 1584 1586 1586 1587 1587 1586 1584 1582 1578 1575 1571 1567 1562 1557 1551 1546 1540 1534 1528 1522 1517 1511 1505 1499 1492 1485 1478 1471 1464 1458 1452 1446 1441
1590 1590 1589 1588 1583 1574 1576 1575 1559 1561 1563 1565 1569 1572 1574 1576 1579 1581 1582 1583 1583 1583 1581 1578 1575 1572 1568 1564 1559 1554 1548 1543 1537 1531 1525 1519 1513 1508 1502 1496 1489 1482 1475 1467 1460 1453 1447 1441 1437
1587 1581 1574 1571 1569 1567 1582 1577 1561 1559 1564 1566 1568 1569 1570 1572 1574 1575 1577 1579 1579 1579 1577 1575 1572 1569 1566 1561 1556 1551 1546 1540 1534 1528 1522 1516 1511 1505 1499 1493 1486 1479 1472 1464 1457 1449 1443 1437 1432
1586 1584 1583 1584 1576 1569 1577 1572 1553 1561 1564 1565 1565 1566 1566 1568 1569 1571 1573 1575 1575 1575 1573 1572 1569 1566 1562 1558 1553 1548 1543 1537 1532 1526 1520 1514 1509 1503 1497 1490 1484 1477 1470 1463 1455 1448 1441 1434 1429
1585 1585 1589 1585 1584 1584 1565 1561 1553 1561 1561 1562 1562 1562 1562 1563 1565 1567 1569 1571 1571 1571 1570 1568 1566 1563 1559 1555 1550 1545 1540 1534 1529 1523 1518 1512 1506 1500 1494 1488 1482 1475 1468 1461 1454 1447 1440 1433 1427
1590 1588 1588 1586 1583 1578 1562 1558 1553 1546 1548 1554 1556 1557 1557 1559 1560 1563 1564 1566 1567 1567 1566 1564 1562 1560 1556 1552 1547 1542 1537 1532 1526 1521 1515 1510 1504 1498 1492 1486 1479 1473 1467 1460 1453 1446 1439 1433 1426
1590 1590 1587 1586 1585 1581 1572 1554 1544 1544 1545 1548 1550 1551 1552 1553 1555 1557 1560 1562 1562 1562 1562 1561 1559 1556 1553 1549 1544 1539 1534 1529 1524 1518 1513 1507 1501 1495 1489 1483 1477 1471 1465 1458 1452 1446 1439 1432 1426
1585 1583 1583 1582 1579 1584 1578 1558 1541 1544 1545 1546 1546 1546 1546 1548 1550 1553 1555 1557 1558 1558 1558 1557 1555 1552 1549 1545 1541 1536 1532 1526 1521 1516 1510 1504 1499 1493 1487 1481 1475 1469 1463 1456 1451 1444 1438 1431 1425